Time,TemperatureF,DewpointF,PressureIn,WindDirection,WindDirectionDegrees,WindSpeedMPH,WindSpeedGustMPH,Humidity,HourlyPrecipIn,Conditions,Clouds,dailyrainin,SoftwareType,DateUTC
2013-09-24 00:14:00,56.0,52.0,29.94,ESE,111,0.0,-999.0,85,-99.99,,,0.00,weatherlink.com 1.10,2013-09-24 05:14:00,
2013-09-24 00:29:00,55.9,52.0,29.93,ESE,111,0.0,-999.0,86,-99.99,,,0.00,weatherlink.com 1.10,2013-09-24 05:29:00,
2013-09-24 00:44:00,56.0,52.0,29.92,ESE,111,0.0,-999.0,85,-99.99,,,0.00,weatherlink.com 1.10,2013-09-24 05:44:00,
2013-09-24 00:59:00,56.0,52.0,29.92,ESE,111,0.0,-999.0,85,-99.99,,,0.00,weatherlink.com 1.10,2013-09-24 05:59:00,
2013-09-24 01:14:00,55.8,52.0,29.92,ESE,111,0.0,-999.0,86,-99.99,,,0.00,weatherlink.com 1.10,2013-09-24 06:14:00,
2013-09-24 01:29:00,55.6,52.0,29.92,ESE,111,0.0,-999.0,86,-99.99,,,0.00,weatherlink.com 1.10,2013-09-24 06:29:00,
2013-09-24 01:44:00,55.5,51.0,29.91,ESE,111,0.0,-999.0,86,-99.99,,,0.00,weatherlink.com 1.10,2013-09-24 06:44:00,
2013-09-24 01:59:00,55.5,51.0,29.91,ESE,111,0.0,-999.0,85,-99.99,,,0.00,weatherlink.com 1.10,2013-09-24 06:59:00,
2013-09-24 02:14:00,55.5,51.0,29.91,ESE,111,0.0,-999.0,85,-99.99,,,0.00,weatherlink.com 1.10,2013-09-24 07:14:00,
2013-09-24 02:30:00,55.5,51.0,29.91,ESE,111,0.0,-999.0,85,-99.99,,,0.00,weatherlink.com 1.10,2013-09-24 07:30:00,
2013-09-24 02:45:00,55.4,51.0,29.90,ESE,111,0.0,-999.0,84,-99.99,,,0.00,weatherlink.com 1.10,2013-09-24 07:45:00,
2013-09-24 03:00:00,55.2,51.0,29.90,ESE,111,0.0,-999.0,84,-99.99,,,0.00,weatherlink.com 1.10,2013-09-24 08:00:00,
2013-09-24 03:15:00,54.9,51.0,29.90,ESE,111,0.0,-999.0,85,-99.99,,,0.00,weatherlink.com 1.10,2013-09-24 08:15:00,
2013-09-24 03:30:00,54.6,50.0,29.90,ESE,111,0.0,-999.0,85,-99.99,,,0.00,weatherlink.com 1.10,2013-09-24 08:30:00,
2013-09-24 03:45:00,54.5,50.0,29.90,ESE,111,0.0,-999.0,85,-99.99,,,0.00,weatherlink.com 1.10,2013-09-24 08:45:00,
2013-09-24 04:00:00,54.4,50.0,29.90,ESE,111,0.0,-999.0,85,-99.99,,,0.00,weatherlink.com 1.10,2013-09-24 09:00:00,
2013-09-24 04:15:00,54.1,50.0,29.90,ESE,111,0.0,-999.0,86,-99.99,,,0.00,weatherlink.com 1.10,2013-09-24 09:15:00,
2013-09-24 04:30:00,53.5,50.0,29.90,ESE,111,0.0,-999.0,87,-99.99,,,0.00,weatherlink.com 1.10,2013-09-24 09:30:00,
2013-09-24 04:45:00,53.1,49.0,29.90,ESE,111,0.0,-999.0,87,-99.99,,,0.00,weatherlink.com 1.10,2013-09-24 09:45:00,
2013-09-24 05:00:00,53.0,50.0,29.90,ESE,111,0.0,-999.0,88,-99.99,,,0.00,weatherlink.com 1.10,2013-09-24 10:00:00,
2013-09-24 05:16:00,52.9,50.0,29.90,ESE,111,0.0,-999.0,88,-99.99,,,0.00,weatherlink.com 1.10,2013-09-24 10:16:00,
2013-09-24 05:31:00,53.0,50.0,29.90,ESE,111,0.0,-999.0,88,-99.99,,,0.00,weatherlink.com 1.10,2013-09-24 10:31:00,
2013-09-24 05:46:00,53.1,50.0,29.90,ESE,111,0.0,-999.0,88,-99.99,,,0.00,weatherlink.com 1.10,2013-09-24 10:46:00,
2013-09-24 06:01:00,53.0,50.0,29.90,ESE,111,0.0,-999.0,88,-99.99,,,0.00,weatherlink.com 1.10,2013-09-24 11:01:00,
2013-09-24 06:16:00,53.1,50.0,29.90,ESE,111,0.0,-999.0,88,-99.99,,,0.00,weatherlink.com 1.10,2013-09-24 11:16:00,
2013-09-24 06:31:00,53.5,50.0,29.89,ESE,121,0.0,-999.0,87,-99.99,,,0.00,weatherlink.com 1.10,2013-09-24 11:31:00,
2013-09-24 06:46:00,53.7,50.0,29.90,ESE,121,0.0,-999.0,86,-99.99,,,0.00,weatherlink.com 1.10,2013-09-24 11:46:00,
2013-09-24 07:01:00,53.6,50.0,29.89,ESE,121,0.0,-999.0,87,-99.99,,,0.00,weatherlink.com 1.10,2013-09-24 12:01:00,
2013-09-24 07:16:00,53.5,50.0,29.90,ESE,121,0.0,-999.0,87,-99.99,,,0.00,weatherlink.com 1.10,2013-09-24 12:16:00,
2013-09-24 07:31:00,53.6,50.0,29.90,ESE,121,0.0,-999.0,87,-99.99,,,0.00,weatherlink.com 1.10,2013-09-24 12:31:00,
2013-09-24 07:46:00,54.0,50.0,29.91,ESE,121,0.0,-999.0,87,-99.99,,,0.00,weatherlink.com 1.10,2013-09-24 12:46:00,
2013-09-24 08:01:00,54.8,51.0,29.90,ESE,121,0.0,-999.0,87,-99.99,,,0.00,weatherlink.com 1.10,2013-09-24 13:01:00,
2013-09-24 08:16:00,55.2,51.0,29.90,ESE,121,0.0,-999.0,85,-99.99,,,0.00,weatherlink.com 1.10,2013-09-24 13:16:00,
2013-09-24 08:32:00,55.7,51.0,29.90,East,98,0.0,-999.0,85,-99.99,,,0.00,weatherlink.com 1.10,2013-09-24 13:32:00,
2013-09-24 08:47:00,56.8,52.0,29.90,East,98,0.0,-999.0,84,-99.99,,,0.00,weatherlink.com 1.10,2013-09-24 13:47:00,
2013-09-24 09:02:00,58.4,53.0,29.90,ESE,102,0.0,-999.0,82,-99.99,,,0.00,weatherlink.com 1.10,2013-09-24 14:02:00,
2013-09-24 09:17:00,60.1,54.0,29.90,East,94,2.0,-999.0,79,-99.99,,,0.00,weatherlink.com 1.10,2013-09-24 14:17:00,
2013-09-24 09:32:00,60.5,54.0,29.90,ESE,107,0.0,-999.0,78,-99.99,,,0.00,weatherlink.com 1.10,2013-09-24 14:32:00,
2013-09-24 09:47:00,61.5,55.0,29.90,East,98,0.0,-999.0,78,-99.99,,,0.00,weatherlink.com 1.10,2013-09-24 14:47:00,
2013-09-24 10:02:00,62.4,55.0,29.91,ESE,119,0.0,-999.0,76,-99.99,,,0.00,weatherlink.com 1.10,2013-09-24 15:02:00,
2013-09-24 10:17:00,63.0,56.0,29.90,ESE,115,0.0,-999.0,77,-99.99,,,0.00,weatherlink.com 1.10,2013-09-24 15:17:00,
2013-09-24 10:32:00,64.0,56.0,29.90,ESE,117,0.0,-999.0,76,-99.99,,,0.00,weatherlink.com 1.10,2013-09-24 15:32:00,
2013-09-24 10:48:00,64.9,56.0,29.89,ESE,109,0.0,-999.0,74,-99.99,,,0.00,weatherlink.com 1.10,2013-09-24 15:48:00,
2013-09-24 11:03:00,66.7,57.0,29.90,ESE,111,0.0,-999.0,72,-99.99,,,0.00,weatherlink.com 1.10,2013-09-24 16:03:00,
2013-09-24 11:18:00,69.4,58.0,29.90,ESE,119,0.0,-999.0,68,-99.99,,,0.00,weatherlink.com 1.10,2013-09-24 16:18:00,
2013-09-24 11:33:00,70.0,59.0,29.90,East,86,0.0,-999.0,69,-99.99,,,0.00,weatherlink.com 1.10,2013-09-24 16:33:00,
2013-09-24 11:48:00,70.3,59.0,29.90,East,86,0.0,-999.0,67,-99.99,,,0.00,weatherlink.com 1.10,2013-09-24 16:48:00,
2013-09-24 12:03:00,70.6,59.0,29.90,East,86,0.0,-999.0,67,-99.99,,,0.00,weatherlink.com 1.10,2013-09-24 17:03:00,
2013-09-24 12:18:00,71.5,60.0,29.89,East,101,0.0,-999.0,67,-99.99,,,0.00,weatherlink.com 1.10,2013-09-24 17:18:00,
2013-09-24 12:33:00,72.7,59.0,29.89,ENE,77,0.0,-999.0,63,-99.99,,,0.00,weatherlink.com 1.10,2013-09-24 17:33:00,
2013-09-24 12:48:00,73.5,60.0,29.89,ESE,113,0.0,-999.0,62,-99.99,,,0.00,weatherlink.com 1.10,2013-09-24 17:48:00,
2013-09-24 13:04:00,74.0,61.0,29.89,ESE,113,0.0,-999.0,64,-99.99,,,0.00,weatherlink.com 1.10,2013-09-24 18:04:00,
2013-09-24 13:19:00,74.8,60.0,29.88,ENE,68,0.0,-999.0,61,-99.99,,,0.00,weatherlink.com 1.10,2013-09-24 18:19:00,
2013-09-24 13:34:00,75.5,60.0,29.88,ENE,75,0.0,-999.0,58,-99.99,,,0.00,weatherlink.com 1.10,2013-09-24 18:34:00,
2013-09-24 13:49:00,77.6,61.0,29.87,East,82,1.0,-999.0,56,-99.99,,,0.00,weatherlink.com 1.10,2013-09-24 18:49:00,
2013-09-24 14:04:00,78.5,60.0,29.87,ENE,60,0.0,-999.0,54,-99.99,,,0.00,weatherlink.com 1.10,2013-09-24 19:04:00,
2013-09-24 14:19:00,78.3,60.0,29.86,NNE,15,0.0,-999.0,53,-99.99,,,0.00,weatherlink.com 1.10,2013-09-24 19:19:00,
2013-09-24 14:34:00,77.3,60.0,29.86,ENE,67,0.0,-999.0,56,-99.99,,,0.00,weatherlink.com 1.10,2013-09-24 19:34:00,
2013-09-24 14:49:00,76.9,60.0,29.85,ENE,61,1.0,-999.0,56,-99.99,,,0.00,weatherlink.com 1.10,2013-09-24 19:49:00,
2013-09-24 15:04:00,77.5,60.0,29.86,East,98,0.0,-999.0,55,-99.99,,,0.00,weatherlink.com 1.10,2013-09-24 20:04:00,
2013-09-24 15:19:00,78.0,59.0,29.86,ENE,74,0.0,-999.0,52,-99.99,,,0.00,weatherlink.com 1.10,2013-09-24 20:19:00,
2013-09-24 15:35:00,78.5,60.0,29.86,ENE,67,1.0,-999.0,53,-99.99,,,0.00,weatherlink.com 1.10,2013-09-24 20:35:00,
2013-09-24 16:05:00,77.9,58.0,29.86,East,82,0.0,-999.0,50,-99.99,,,0.00,weatherlink.com 1.10,2013-09-24 21:05:00,
2013-09-24 16:20:00,78.5,59.0,29.86,ESE,102,0.0,-999.0,52,-99.99,,,0.00,weatherlink.com 1.10,2013-09-24 21:20:00,
2013-09-24 16:35:00,78.3,60.0,29.86,ENE,74,0.0,-999.0,53,-99.99,,,0.00,weatherlink.com 1.10,2013-09-24 21:35:00,
2013-09-24 16:50:00,76.2,58.0,29.87,ENE,74,0.0,-999.0,54,-99.99,,,0.00,weatherlink.com 1.10,2013-09-24 21:50:00,
2013-09-24 17:05:00,75.3,58.0,29.87,ENE,74,0.0,-999.0,55,-99.99,,,0.00,weatherlink.com 1.10,2013-09-24 22:05:00,
2013-09-24 17:20:00,76.4,58.0,29.87,ENE,74,0.0,-999.0,54,-99.99,,,0.00,weatherlink.com 1.10,2013-09-24 22:20:00,
2013-09-24 17:35:00,74.8,58.0,29.87,ENE,74,0.0,-999.0,56,-99.99,,,0.00,weatherlink.com 1.10,2013-09-24 22:35:00,
2013-09-24 17:50:00,75.2,58.0,29.88,ENE,74,0.0,-999.0,56,-99.99,,,0.00,weatherlink.com 1.10,2013-09-24 22:50:00,
2013-09-24 18:06:00,74.2,57.0,29.87,ENE,74,0.0,-999.0,56,-99.99,,,0.00,weatherlink.com 1.10,2013-09-24 23:06:00,
2013-09-24 18:20:00,72.7,58.0,29.88,ENE,74,0.0,-999.0,61,-99.99,,,0.00,weatherlink.com 1.10,2013-09-24 23:20:00,
2013-09-24 18:35:00,70.8,58.0,29.88,ENE,74,0.0,-999.0,65,-99.99,,,0.00,weatherlink.com 1.10,2013-09-24 23:35:00,
2013-09-24 18:51:00,68.9,58.0,29.88,ENE,74,0.0,-999.0,69,-99.99,,,0.00,weatherlink.com 1.10,2013-09-24 23:51:00,
2013-09-24 19:06:00,67.5,58.0,29.88,ENE,74,0.0,-999.0,72,-99.99,,,0.00,weatherlink.com 1.10,2013-09-25 00:06:00,
2013-09-24 19:21:00,66.4,58.0,29.88,ENE,74,0.0,-999.0,73,-99.99,,,0.00,weatherlink.com 1.10,2013-09-25 00:21:00,
2013-09-24 19:36:00,65.6,58.0,29.89,ENE,74,0.0,-999.0,75,-99.99,,,0.00,weatherlink.com 1.10,2013-09-25 00:36:00,
2013-09-24 19:51:00,64.8,57.0,29.89,ENE,74,0.0,-999.0,77,-99.99,,,0.00,weatherlink.com 1.10,2013-09-25 00:51:00,
2013-09-24 20:06:00,64.3,57.0,29.89,ENE,74,0.0,-999.0,78,-99.99,,,0.00,weatherlink.com 1.10,2013-09-25 01:06:00,
2013-09-24 20:21:00,63.7,57.0,29.89,ENE,74,0.0,-999.0,80,-99.99,,,0.00,weatherlink.com 1.10,2013-09-25 01:21:00,
2013-09-24 20:36:00,63.5,57.0,29.90,ENE,74,0.0,-999.0,80,-99.99,,,0.00,weatherlink.com 1.10,2013-09-25 01:36:00,
2013-09-24 20:51:00,63.6,57.0,29.90,ENE,74,0.0,-999.0,80,-99.99,,,0.00,weatherlink.com 1.10,2013-09-25 01:51:00,
2013-09-24 21:06:00,62.9,57.0,29.90,ENE,74,0.0,-999.0,81,-99.99,,,0.00,weatherlink.com 1.10,2013-09-25 02:06:00,
2013-09-24 21:21:00,62.2,57.0,29.90,ENE,74,0.0,-999.0,82,-99.99,,,0.00,weatherlink.com 1.10,2013-09-25 02:21:00,
2013-09-24 21:36:00,61.9,57.0,29.91,ENE,74,0.0,-999.0,83,-99.99,,,0.00,weatherlink.com 1.10,2013-09-25 02:36:00,
2013-09-24 21:51:00,61.4,56.0,29.91,ENE,74,0.0,-999.0,83,-99.99,,,0.00,weatherlink.com 1.10,2013-09-25 02:51:00,
2013-09-24 22:07:00,61.1,56.0,29.91,ENE,74,0.0,-999.0,84,-99.99,,,0.00,weatherlink.com 1.10,2013-09-25 03:07:00,
2013-09-24 22:22:00,61.4,57.0,29.91,ENE,74,0.0,-999.0,84,-99.99,,,0.00,weatherlink.com 1.10,2013-09-25 03:22:00,
2013-09-24 22:37:00,61.5,56.0,29.92,ENE,74,0.0,-999.0,83,-99.99,,,0.00,weatherlink.com 1.10,2013-09-25 03:37:00,
2013-09-24 22:52:00,61.1,56.0,29.92,ENE,74,0.0,-999.0,83,-99.99,,,0.00,weatherlink.com 1.10,2013-09-25 03:52:00,
2013-09-24 23:07:00,60.3,56.0,29.92,ENE,74,0.0,-999.0,84,-99.99,,,0.00,weatherlink.com 1.10,2013-09-25 04:07:00,
2013-09-24 23:22:00,60.0,56.0,29.92,ENE,74,0.0,-999.0,85,-99.99,,,0.00,weatherlink.com 1.10,2013-09-25 04:22:00,
2013-09-24 23:37:00,60.2,56.0,29.92,ENE,74,0.0,-999.0,85,-99.99,,,0.00,weatherlink.com 1.10,2013-09-25 04:37:00,
2013-09-24 23:52:00,60.3,56.0,29.92,ENE,74,0.0,-999.0,85,-99.99,,,0.00,weatherlink.com 1.10,2013-09-25 04:52:00,